STARLINK-11146 [DTC] (60729 NORAD) Tracking and Keplerian Element Data

This shows tracking and keplerian element data for the satellite.

Feedback or suggestion? Click here.




ElementValue
Catalog60729
NameSTARLINK-11146 [DTC]
Epoch Orbit841
Epoch Day286.80739725
Epoch Year2024
RAAN124.377
Inclination53.1576
Eccentricity0.0001534
Argument of Perigee114.427
Mean Anonmoly245.6908
Mean Motion15.69755009
Decay Rate0.00011059
L11 60729U 24152K 24286.80739725 .00011059 00000+0 95843-4 0 9999
L22 60729 53.1576 124.3770 0001534 114.4270 245.6908 15.69755009 8413



Live tracking and technical data element details for STARLINK-11146 [DTC] (NORAD 60729). STARLINK-11146 [DTC] can be tracked NOW for your location showing map with azimuth and elevation plus other details from your city location.







IsCatalogInMostPopularTable: catalog: 60729, numindb: 9
Update: records affected: 1



GetName: 60729 STARLINK-11146 [DTC]

Hit Count: updated at: Fri, 06 Dec 2024 11:22:59 GMT